#timestamp,LO_Frequency,Hit,StdDev 
1593252015.2,286047002.5,N
1593252035.0,286046999.7,N
1593252035.9,286046999.7,N
1593252055.8,286047002.5,N
1593252075.6,286047000.0,N
1593252095.4,286047000.1,N
1593252115.3,286046999.8,N
1593252135.1,286046999.7,N
1593252155.9,286047002.8,N
1593252175.7,286047001.4,N
1593252195.5,286047004.3,Y
1593252215.4,286047001.7,P
1593252235.2,286047002.2,P
1593252255.1,286047002.6,P
1593252256.0,286047002.6,Y
1593252275.8,286046998.4,P
1593252295.6,286046996.8,N
1593252315.5,286046996.5,N
1593252335.3,286046996.6,N
1593252355.2,286046997.2,N
1593252375.9,286046999.6,N
1593252395.7,286046996.9,N
1593252415.6,286046999.1,N
1593252435.4,286046998.9,N
1593252455.3,286046999.2,N
1593252475.1,286046999.6,N
1593252476.0,286046999.6,N
1593252495.8,286046998.9,N
1593252515.7,286046996.5,N
1593252535.5,286046997.8,N
1593252555.3,286046999.0,N
1593252575.2,286046996.9,N
1593252595.0,286046997.4,N
1593252595.9,286046997.4,N
1593252615.8,286046996.8,N
1593252635.6,286046996.9,N
1593252655.5,286046996.7,N
1593252675.3,286046996.8,N
1593252695.1,286046997.3,N
1593252715.9,286046997.8,N
1593252735.7,286046997.6,N
1593252755.5,286046997.3,N
1593252775.4,286046997.5,N
1593252795.2,286046997.0,N
1593252815.1,286046996.9,N
1593252816.0,286046996.9,Y
1593252835.8,286046999.8,P
1593252855.6,286047001.1,N
1593252875.5,286047000.2,N
1593252895.3,286047000.0,N
1593252915.2,286047000.2,N
1593252935.9,286047000.0,N
1593252955.7,286047001.2,N
1593252975.6,286047001.2,N
1593252995.4,286046998.2,N
1593253015.3,286047001.0,N
1593253035.1,286047000.3,N
1593253036.0,286047000.3,N
1593253055.8,286047000.7,N
1593253075.7,286046998.6,N
1593253095.5,286046998.9,N
1593253115.4,286046999.1,N
1593253135.2,286046998.9,N
1593253155.0,286046998.2,N
1593253155.9,286046998.2,N
1593253175.8,286047001.2,N
1593253195.6,286047001.2,N
1593253215.4,286046998.6,N
1593253235.3,286047001.0,N
1593253255.1,286047000.8,N
1593253275.9,286047000.4,N
1593253295.7,286047000.5,N
1593253315.5,286047000.6,N
1593253335.4,286047001.1,N
1593253355.2,286047000.3,N
1593253375.1,286047001.2,N
1593253376.0,286047001.2,N
1593253395.8,286047001.2,N
1593253415.6,286047001.2,N
1593253435.5,286047001.1,N
1593253455.3,286047001.0,N
1593253475.1,286047002.1,N
1593253495.9,286047001.3,N
1593253515.7,286047001.6,N
1593253535.6,286047003.9,Y
1593253555.4,286047001.9,P
1593253575.2,286046998.4,N
1593253595.1,286046998.2,N
1593253596.0,286046998.2,N
1593253615.8,286047000.7,N
1593253635.7,286046998.1,N
1593253655.5,286046997.7,N
1593253675.3,286046996.6,N
1593253695.2,286046996.8,N
1593253715.0,286046996.5,N
1593253715.9,286046996.5,N
1593253735.8,286046994.9,Y
1593253755.6,286047000.1,P
1593253775.4,286047000.7,N
1593253795.3,286047000.7,N
1593253815.1,286047000.4,N
1593253835.9,286047002.0,N
1593253855.7,286047004.0,Y
1593253875.5,286047004.6,P
1593253895.4,286047007.0,P
1593253915.2,286047007.0,N
1593253935.1,286047008.8,Y
1593253936.0,286047008.8,P
1593253955.8,286047001.4,N
1593253975.6,286047003.9,N
1593253995.5,286047003.6,N
1593254015.3,286047004.9,N
1593254035.1,286047005.3,N
1593254055.9,286047005.7,N
1593254075.7,286047007.8,Y
1593254095.6,286047003.1,P
1593254115.4,286047001.6,N
1593254135.2,286047003.9,N
1593254155.1,286047000.6,N
1593254156.0,286047000.6,N
1593254175.8,286047000.5,N
1593254195.7,286047000.1,N
1593254215.5,286046998.3,N
1593254235.3,286046998.5,N
1593254255.2,286046999.2,N
1593254275.0,286047000.9,N
1593254275.9,286047011.9,Y
1593254295.8,286047001.1,P
1593254315.6,286047000.6,P
1593254335.4,286046997.6,P
1593254355.3,286046999.1,N
1593254375.1,286047001.1,N
1593254395.8,286047001.1,N
1593254415.7,286046998.5,N
1593254435.5,286047002.6,N
1593254455.4,286046999.7,N
1593254475.2,286047000.4,N
1593254495.0,286047001.1,N
1593254495.9,286047001.1,N
1593254515.8,286047000.2,N
1593254535.6,286047000.2,N
1593254555.5,286047001.8,N
1593254575.3,286047003.1,N
1593254595.1,286047003.9,N
1593254615.9,286047002.6,N
1593254635.7,286047001.6,N
1593254655.5,286047001.9,N
1593254675.4,286047002.4,N
1593254695.2,286047001.1,N
1593254715.1,286046998.6,N
1593254716.0,286046998.6,N
1593254735.8,286047000.4,N
1593254755.6,286046998.4,N
1593254775.5,286046998.2,N
1593254795.3,286046998.7,N
1593254815.2,286046998.3,N
1593254835.9,286046999.4,N
1593254855.7,286046999.4,N
1593254875.6,286046997.2,N
1593254895.4,286046999.3,N
1593254915.3,286046998.7,N
1593254935.1,286046997.4,N
1593254936.0,286046997.4,N
1593254955.8,286046994.9,N
1593254975.7,286046997.0,N
1593254995.5,286046999.5,N
1593255015.3,286046996.7,N
1593255035.2,286046995.6,N
1593255055.0,286046995.8,N
1593255055.9,286046995.8,N
1593255075.8,286046997.5,N
1593255095.6,286046995.3,N
1593255115.4,286046995.8,N
1593255135.3,286046997.8,N
1593255155.1,286046995.7,N
1593255175.9,286046997.9,N
1593255195.7,286046995.4,N
1593255215.5,286046996.2,N
1593255235.4,286046992.6,Y
1593255255.2,286046993.9,P
1593255275.0,286046995.0,N
1593255276.0,286046995.0,P
1593255295.8,286046996.5,N
1593255315.6,286046997.2,N
1593255335.5,286046999.1,N
1593255355.3,286046997.0,N
1593255375.1,286046997.2,N
1593255395.9,286046997.9,N
1593255415.7,286046993.4,Y
1593255435.6,286046996.4,P
1593255455.4,286046995.6,P
1593255475.2,286046994.0,P
1593255495.1,286046996.0,Y
1593255496.0,286046996.0,P
1593255515.8,286046999.3,P
1593255535.7,286046999.5,N
1593255555.5,286046996.5,N
1593255575.3,286046999.3,N
1593255595.2,286046999.1,N
